Weather History for Las Vegas, NV

Change the Weather History Date:

Friday, July 4, 2014

  Actual Average Record
Temperature  
Mean Temperature 92 °F 92 °F  
Max Temperature 103 °F 104 °F 115 °F (1973)
Min Temperature 81 °F 80 °F 60 °F (1941)
Degree Days  
Heating Degree Days 0 0  
Month to date heating degree days 0 0  
Since 1 June heating degree days 0 1  
Since 1 July heating degree days 0 0  
Cooling Degree Days 27 27  
Month to date cooling degree days 128 105  
Year to date cooling degree days 1527 1305  
Since 1 June cooling degree days 869 755  
Growing Degree Days 42 (Base 50)    
Moisture  
Dew Point 52 °F    
Average Humidity 27    
Maximum Humidity 40    
Minimum Humidity 14    
Precipitation  
Precipitation 0.08 in 0.00 in 0.16 in (1949)
Month to date precipitation 0.08 0.02  
Year to date precipitation 0.38 2.10  
Snow  
Snow 0.00 in 0.00 in 0.00 in ()
Month to date snowfall 0.0 0.0  
Since 1 June snowfall 0.0 0.0  
Since 1 July snowfall 0.0 0.0  
Snow Depth 0.00 in    
Sea Level Pressure  
Sea Level Pressure 29.85 in    
Wind  
Wind Speed 16 mph (South)    
Max Wind Speed 29 mph    
Max Gust Speed 40 mph    
Visibility 10 miles    
Events Rain , Thunderstorm    
T = Trace of Precipitation, MM = Missing Value Source: NWS Daily Summary

Daily Weather History Graph

Daily Weather History Graph

Search for Another Location

Airport:

Trip Planner

Search our weather history database for the weather conditions in past years. The results will help you decide how hot, cold, wet, or windy it might be!

Date:

Astronomy

Jul. 04, 2014 Rise Set
Actual Time 5:28 AM PDT 8:01 PM PDT
Civil Twilight 4:58 AM PDT 8:31 PM PDT
Nautical Twilight 4:21 AM PDT 9:08 PM PDT
Astronomical Twilight 3:40 AM PDT 9:49 PM PDT
Moon 12:15 PM PDT (7/4) No Moon Set
Length of Visible Light 15h 32m
Length of Day
14h 32m
Waxing Crescent, 43% of the Moon is Illuminated
Jul 4
Waxing Crescent
Jul 5
First Quarter
Jul 12
Full
Jul 18
Last Quarter
Jul 26
New

Hourly Weather History & Observations

Time (PDT) Temp. Heat Index Dew Point Humidity Pressure Visibility Wind Dir Wind Speed Gust Speed Precip Events Conditions
12:56 AM 95.0 °F - 43.0 °F 17% 29.75 in 10.0 mi South 15.0 mph 21.9 mph N/A   Clear
1:56 AM 93.9 °F - 37.9 °F 14% 29.77 in 10.0 mi South 13.8 mph - N/A   Clear
2:56 AM 87.1 °F 86.5 °F 59.0 °F 39% 29.81 in 6.0 mi South 24.2 mph 35.7 mph N/A   Widespread Dust
3:56 AM 86.0 °F 85.0 °F 57.9 °F 38% 29.83 in 9.0 mi South 23.0 mph 31.1 mph N/A   Clear
4:56 AM 87.1 °F 85.7 °F 55.9 °F 35% 29.84 in 10.0 mi South 21.9 mph 29.9 mph N/A   Clear
5:56 AM 84.9 °F 83.9 °F 57.0 °F 38% 29.87 in 10.0 mi South 18.4 mph 26.5 mph N/A   Partly Cloudy
6:56 AM 86.0 °F 84.7 °F 55.9 °F 36% 29.88 in 10.0 mi South 20.7 mph 28.8 mph N/A   Partly Cloudy
7:56 AM 88.0 °F 86.5 °F 55.9 °F 34% 29.90 in 10.0 mi South 21.9 mph 32.2 mph N/A   Partly Cloudy
8:56 AM 91.4 °F 89.4 °F 55.4 °F 29% 30.00 in 10.0 mi South 17.3 mph 26.5 mph N/A   Partly Cloudy
9:56 AM 93.9 °F 91.7 °F 54.0 °F 26% 29.91 in 10.0 mi South 17.3 mph 20.7 mph N/A   Scattered Clouds
10:56 AM 97.0 °F - 52.0 °F 22% 29.90 in 10.0 mi South 17.3 mph - N/A   Scattered Clouds
11:56 AM 98.1 °F - 51.1 °F 20% 29.88 in 10.0 mi SSW 11.5 mph - N/A   Scattered Clouds
12:56 PM 99.0 °F - 50.0 °F 19% 29.86 in 10.0 mi Variable 5.8 mph - 0.00 in   Scattered Clouds
1:56 PM 100.9 °F - 46.9 °F 16% 29.83 in 10.0 mi South 16.1 mph 20.7 mph N/A   Scattered Clouds
2:56 PM 100.9 °F - 51.1 °F 19% 29.81 in 10.0 mi ESE 12.7 mph 27.6 mph N/A   Mostly Cloudy
3:56 PM 100.9 °F - 48.9 °F 17% 29.78 in 10.0 mi ESE 11.5 mph - N/A   Scattered Clouds
4:56 PM 102.0 °F - 51.1 °F 18% 29.76 in 10.0 mi SSE 9.2 mph - N/A   Scattered Clouds
5:56 PM 99.0 °F - 46.9 °F 17% 29.76 in 10.0 mi SSE 17.3 mph 23.0 mph N/A   Scattered Clouds
6:56 PM 98.1 °F - 46.0 °F 17% 29.78 in 10.0 mi SSE 15.0 mph 27.6 mph N/A   Mostly Cloudy
7:56 PM 96.8 °F - 48.2 °F 19% 29.88 in 10.0 mi South 17.3 mph 27.6 mph N/A   Mostly Cloudy
8:48 PM 96.1 °F - 48.9 °F 20% 29.90 in 10.0 mi South 12.7 mph - N/A Thunderstorm Mostly Cloudy
8:56 PM 96.1 °F - 48.9 °F 20% 29.81 in 10.0 mi South 15.0 mph - N/A Thunderstorm Mostly Cloudy
9:56 PM 93.0 °F 90.6 °F 53.1 °F 26% 29.87 in 10.0 mi Variable 4.6 mph - N/A Thunderstorm Mostly Cloudy
10:27 PM 84.9 °F 84.2 °F 57.9 °F 40% 29.99 in 8.0 mi South 17.3 mph 21.9 mph 0.08 in Rain , Thunderstorm Light Thunderstorms and Rain
10:56 PM 82.9 °F 82.6 °F 57.9 °F 42% 29.92 in 10.0 mi SE 13.8 mph 20.7 mph 0.08 in Rain , Thunderstorm Light Thunderstorms and Rain
11:56 PM 82.9 °F 83.3 °F 61.0 °F 47% 29.92 in 10.0 mi WSW 15.0 mph - 0.00 in Thunderstorm Thunderstorm